Météo par heure à Abancay

Ce jour, 29 Novembre, Dimanche

Heure Température Précipitation Vent Pression Humidité
00:00 +14°C° 0.4 mm 1 m/s 545 mmHg 91%
01:00 +14°C° 0.4 mm 1 m/s 544 mmHg 92%
02:00 +14°C° 0.4 mm 1 m/s 544 mmHg 92%
03:00 +14°C° 0.4 mm 1 m/s 544 mmHg 93%
04:00 +13°C° 0.4 mm 0 m/s 544 mmHg 93%
05:00 +13°C° 0.2 mm 0 m/s 544 mmHg 90%
06:00 +14°C° 0.2 mm 1 m/s 545 mmHg 87%
07:00 +15°C° 0.2 mm 1 m/s 545 mmHg 85%
08:00 +16°C° 0.3 mm 1 m/s 546 mmHg 80%
09:00 +18°C° 0.3 mm 1 m/s 546 mmHg 75%
10:00 +18°C° 0.3 mm 2 m/s 547 mmHg 71%
11:00 +19°C° 0.8 mm 2 m/s 546 mmHg 69%
12:00 +19°C° 0.8 mm 3 m/s 546 mmHg 67%
13:00 +20°C° 0.8 mm 3 m/s 546 mmHg 65%
14:00 +19°C° 0.7 mm 3 m/s 545 mmHg 69%
15:00 +19°C° 0.7 mm 3 m/s 544 mmHg 72%
16:00 +18°C° 0.7 mm 3 m/s 544 mmHg 75%
17:00 +17°C° 0.2 mm 2 m/s 544 mmHg 81%
18:00 +16°C° 0.2 mm 2 m/s 544 mmHg 86%
19:00 +14°C° 0.2 mm 1 m/s 544 mmHg 92%
20:00 +14°C° 0.1 mm 1 m/s 544 mmHg 92%
21:00 +14°C° 0.1 mm 1 m/s 545 mmHg 91%
22:00 +14°C° 0.1 mm 1 m/s 546 mmHg 91%
23:00 +14°C° 0 mm 1 m/s 545 mmHg 92%

Demain, 30 Novembre, Lundi

Heure Température Précipitation Vent Pression Humidité
00:00 +13°C° 0 mm 1 m/s 544 mmHg 93%
01:00 +13°C° 0 mm 1 m/s 544 mmHg 95%
02:00 +12°C° 0 mm 0 m/s 544 mmHg 94%
03:00 +12°C° 0 mm 0 m/s 543 mmHg 94%
04:00 +12°C° 0 mm 0 m/s 543 mmHg 93%
05:00 +13°C° 0 mm 0 m/s 544 mmHg 88%
06:00 +13°C° 0 mm 0 m/s 545 mmHg 83%
07:00 +15°C° 0 mm 1 m/s 545 mmHg 78%
08:00 +18°C° 0.3 mm 1 m/s 546 mmHg 72%
09:00 +19°C° 0.3 mm 1 m/s 547 mmHg 66%
10:00 +20°C° 0.3 mm 2 m/s 547 mmHg 60%
11:00 +21°C° 0.9 mm 2 m/s 547 mmHg 58%
12:00 +21°C° 0.9 mm 3 m/s 546 mmHg 57%
13:00 +22°C° 0.9 mm 3 m/s 545 mmHg 55%
14:00 +22°C° 0.8 mm 3 m/s 545 mmHg 57%
15:00 +21°C° 0.8 mm 3 m/s 544 mmHg 59%
16:00 +21°C° 0.8 mm 3 m/s 544 mmHg 61%
17:00 +19°C° 0.6 mm 3 m/s 544 mmHg 69%
18:00 +17°C° 0.6 mm 2 m/s 543 mmHg 77%
19:00 +15°C° 0.6 mm 2 m/s 543 mmHg 85%
20:00 +15°C° 0.5 mm 2 m/s 544 mmHg 86%
21:00 +15°C° 0.5 mm 1 m/s 544 mmHg 88%
22:00 +15°C° 0.5 mm 1 m/s 545 mmHg 89%
23:00 +14°C° 0.4 mm 1 m/s 544 mmHg 90%

Après-demain, 1 Décembre, Mardi

Heure Température Précipitation Vent Pression Humidité
00:00 +14°C° 0.4 mm 1 m/s 543 mmHg 91%
01:00 +12°C° 0.4 mm 0 m/s 543 mmHg 93%
02:00 +12°C° 0.1 mm 0 m/s 542 mmHg 93%
03:00 +12°C° 0.1 mm 0 m/s 542 mmHg 93%
04:00 +12°C° 0.1 mm 0 m/s 542 mmHg 93%
05:00 +13°C° 0.1 mm 0 m/s 543 mmHg 89%
06:00 +13°C° 0.1 mm 0 m/s 544 mmHg 85%
07:00 +15°C° 0.1 mm 1 m/s 544 mmHg 81%
08:00 +18°C° 0.9 mm 1 m/s 545 mmHg 75%
09:00 +18°C° 0.9 mm 2 m/s 546 mmHg 69%
10:00 +20°C° 0.9 mm 3 m/s 546 mmHg 63%
11:00 +20°C° 1.5 mm 3 m/s 546 mmHg 63%
12:00 +20°C° 1.5 mm 3 m/s 546 mmHg 63%
13:00 +21°C° 1.5 mm 3 m/s 545 mmHg 63%
14:00 +20°C° 0.8 mm 3 m/s 544 mmHg 68%
15:00 +19°C° 0.8 mm 3 m/s 543 mmHg 72%
16:00 +18°C° 0.8 mm 3 m/s 543 mmHg 76%
17:00 +17°C° 0.3 mm 3 m/s 543 mmHg 81%
18:00 +16°C° 0.3 mm 2 m/s 543 mmHg 86%
19:00 +14°C° 0.3 mm 2 m/s 543 mmHg 91%
20:00 +14°C° 0.1 mm 2 m/s 544 mmHg 91%
21:00 +14°C° 0.1 mm 1 m/s 544 mmHg 90%
22:00 +14°C° 0.1 mm 1 m/s 544 mmHg 90%
23:00 +14°C° 0.3 mm 1 m/s 544 mmHg 88%

2 Décembre, Mercredi

Heure Température Précipitation Vent Pression Humidité
00:00 +14°C° 0.3 mm 1 m/s 544 mmHg 87%
01:00 +14°C° 0.3 mm 1 m/s 544 mmHg 85%
02:00 +14°C° 0.2 mm 1 m/s 543 mmHg 85%
03:00 +13°C° 0.2 mm 1 m/s 543 mmHg 86%
04:00 +13°C° 0.2 mm 1 m/s 543 mmHg 86%
05:00 +14°C° 0 mm 1 m/s 543 mmHg 82%
06:00 +15°C° 0 mm 1 m/s 544 mmHg 79%
07:00 +15°C° 0 mm 1 m/s 544 mmHg 75%
08:00 +18°C° 0.1 mm 1 m/s 545 mmHg 69%
09:00 +19°C° 0.1 mm 1 m/s 546 mmHg 63%
10:00 +21°C° 0.1 mm 1 m/s 546 mmHg 56%
11:00 +21°C° 0.5 mm 2 m/s 546 mmHg 55%
12:00 +23°C° 0.5 mm 2 m/s 546 mmHg 54%
13:00 +22°C° 0.5 mm 3 m/s 545 mmHg 52%
14:00 +22°C° 0.8 mm 3 m/s 545 mmHg 56%
15:00 +21°C° 0.8 mm 3 m/s 544 mmHg 60%
16:00 +20°C° 0.8 mm 3 m/s 543 mmHg 64%
17:00 +19°C° 0.8 mm 3 m/s 543 mmHg 71%
18:00 +17°C° 0.8 mm 3 m/s 543 mmHg 79%
19:00 +15°C° 0.8 mm 2 m/s 543 mmHg 86%
20:00 +15°C° 0.6 mm 2 m/s 543 mmHg 88%
21:00 +14°C° 0.6 mm 2 m/s 544 mmHg 90%
22:00 +14°C° 0.6 mm 1 m/s 544 mmHg 92%
23:00 +14°C° 0.3 mm 1 m/s 544 mmHg 92%

3 Décembre, Jeudi

Heure Température Précipitation Vent Pression Humidité
00:00 +14°C° 0.3 mm 1 m/s 543 mmHg 92%
01:00 +14°C° 0.3 mm 1 m/s 543 mmHg 92%
02:00 +13°C° 0.2 mm 1 m/s 543 mmHg 92%
03:00 +12°C° 0.2 mm 0 m/s 542 mmHg 93%
04:00 +12°C° 0.2 mm 0 m/s 542 mmHg 93%
05:00 +13°C° 0.1 mm 0 m/s 543 mmHg 89%
06:00 +13°C° 0.1 mm 0 m/s 543 mmHg 86%
07:00 +14°C° 0.1 mm 0 m/s 544 mmHg 82%
08:00 +18°C° 0.4 mm 1 m/s 545 mmHg 75%
09:00 +19°C° 0.4 mm 1 m/s 545 mmHg 68%
10:00 +20°C° 0.4 mm 2 m/s 546 mmHg 61%
11:00 +21°C° 1 mm 2 m/s 546 mmHg 59%
12:00 +21°C° 1 mm 3 m/s 545 mmHg 57%
13:00 +22°C° 1 mm 3 m/s 545 mmHg 55%
14:00 +21°C° 1.1 mm 3 m/s 544 mmHg 58%
15:00 +21°C° 1.1 mm 3 m/s 544 mmHg 61%
16:00 +20°C° 1.1 mm 3 m/s 543 mmHg 64%
17:00 +19°C° 1.4 mm 3 m/s 543 mmHg 72%
18:00 +17°C° 1.4 mm 2 m/s 543 mmHg 79%
19:00 +16°C° 1.4 mm 2 m/s 544 mmHg 86%
20:00 +15°C° 1 mm 2 m/s 544 mmHg 88%
21:00 +14°C° 1 mm 2 m/s 544 mmHg 89%
22:00 +13°C° 1 mm 2 m/s 544 mmHg 91%
23:00 +13°C° 0.3 mm 2 m/s 544 mmHg 90%

4 Décembre, Vendredi

Heure Température Précipitation Vent Pression Humidité
00:00 +13°C° 0.3 mm 2 m/s 543 mmHg 88%
01:00 +13°C° 0.3 mm 2 m/s 543 mmHg 87%
02:00 +13°C° 0.5 mm 1 m/s 543 mmHg 87%
03:00 +13°C° 0.5 mm 1 m/s 543 mmHg 87%
04:00 +12°C° 0.5 mm 0 m/s 542 mmHg 87%
05:00 +12°C° 0.1 mm 0 m/s 543 mmHg 85%
06:00 +12°C° 0.1 mm 0 m/s 543 mmHg 83%
07:00 +13°C° 0.1 mm 0 m/s 544 mmHg 80%
08:00 +15°C° 0.1 mm 1 m/s 544 mmHg 76%
09:00 +16°C° 0.1 mm 2 m/s 545 mmHg 72%
10:00 +18°C° 0.1 mm 3 m/s 546 mmHg 68%
11:00 +18°C° 0.6 mm 3 m/s 545 mmHg 71%
12:00 +17°C° 0.6 mm 3 m/s 544 mmHg 73%
13:00 +17°C° 0.6 mm 3 m/s 543 mmHg 75%
14:00 +17°C° 0.6 mm 3 m/s 543 mmHg 78%
15:00 +16°C° 0.6 mm 3 m/s 542 mmHg 81%
16:00 +15°C° 0.6 mm 2 m/s 541 mmHg 85%
17:00 +15°C° 0.2 mm 2 m/s 542 mmHg 86%
18:00 +14°C° 0.2 mm 1 m/s 542 mmHg 88%
19:00 +13°C° 0.2 mm 0 m/s 543 mmHg 89%
20:00 +14°C° 0 mm 1 m/s 543 mmHg 89%
21:00 +14°C° 0 mm 1 m/s 543 mmHg 90%
22:00 +13°C° 0 mm 1 m/s 544 mmHg 90%
23:00 +13°C° 0 mm 1 m/s 543 mmHg 91%
Voir plus

Nous avons besoin de votre consentement

Meteoprog et ses fournisseurs de services peuvent stocker et accéder à des données personnelles telles que des cookies, des identifiants d'appareils ou d'autres technologies similaires sur votre appareil et traiter ces données pour personnaliser le contenu et les publicités, ainsi que pour fournir des fonctionnalités de médias sociaux et analyser le trafic.

  • Stocker et/ou accéder à des informations sur votre appareil

    Des cookies, des identifiants d'appareils ou d'autres informations peuvent être stockés ou accessibles sur votre appareil aux fins indiquées ci-dessus.

  • Annonces et contenus personnalisés, mesure des annonces et des contenus, connaissance de l'audience et développement de produits

    Les annonces et le contenu peuvent être personnalisés en fonction d'un profil. D'autres données peuvent être ajoutées pour mieux personnaliser les annonces et le contenu. Les performances des publicités et du contenu peuvent être mesurées. Il est possible d'obtenir des informations sur le public qui a vu les publicités et le contenu. Ces données peuvent être utilisées pour développer ou améliorer l'expérience de l'utilisateur, les systèmes et les logiciels.

En cliquant sur "J'accepte", vous autorisez l'utilisation de cookies, des identifiants d'appareils, des balises web ou d'autres technologies similaires. Vos paramètres peuvent être modifiés dans le navigateur de votre appareil.

Dans certains cas, des intérêts légitimes peuvent être invoqués plutôt qu'un consentement. Vous pouvez en savoir plus à ce sujet dans notre Politique de confidentialité et de cookies.